Location: La Bastide
(43.1661°N, 1.2755°E)
Time: 02:26:58
(UTC+00:00)

Tiangong - Pass Details

Date: 15 February 2026
Orbit: 382 x 391 km, 41.5° (Epoch: 6 March)

Event Time Altitude Azimuth Distance (km) Brightness Sun altitude
Rises 20:05:11 0° 273° (W) 2,252 2.9 -29.6°
Reaches altitude 10° 20:07:18 10° 268° (W) 1,397 1.5 -29.9°
Enters shadow 20:07:28 11° 267° (W) 1,329 1.4 -30.0°
